Seminole, OK

12:09 PM CDT on October 20, 2019 (GMT -0500)
Seminole

Weather History for KSRE - September, 2019

Change the Weather History Date:

Friday, September 20, 2019

  Actual Average (WUND) Record (WUND)
Temperature  
Mean Temperature 73 °F -  
Max Temperature 77 °F - - (-1)
Min Temperature 69 °F - - (-1)
Cooling Degree Days 8    
Growing Degree Days 23 (Base 50)    
Moisture  
Dew Point 69 °F    
Average Humidity 88    
Maximum Humidity 100    
Minimum Humidity 69    
Precipitation  
Precipitation 0.14 in - - ()
Sea Level Pressure  
Sea Level Pressure 29.97 in    
Wind  
Wind Speed 8 mph ()    
Max Wind Speed 14 mph    
Max Gust Speed 22 mph    
Visibility 8.7 miles    
Events Rain , Thunderstorm    
Averages and records for this station are not official NWS values.
T = Trace of Precipitation, MM = Missing Value Source: Averaged Metar Reports

Daily Weather History Graph

Daily Weather History Graph

Search for Another Location

Airport or City:

Astronomy

Sep. 20, 2019 Rise Set
Actual Time 7:13 AM CDT 7:26 PM CDT
Civil Twilight 6:47 AM CDT 7:52 PM CDT
Nautical Twilight 6:18 AM CDT 8:21 PM CDT
Astronomical Twilight 5:47 AM CDT 8:51 PM CDT
Moon 11:30 PM CDT 1:06 PM CDT
Length of Visible Light 13h 04m
Length of Day
12h 13m
Waning Gibbous, 65% of the Moon is Illuminated
Sep 20
Waning Gibbous
Sep 21
Last Quarter
Sep 28
New
Oct 5
First Quarter
Oct 13
Full

Hourly Weather History & Observations

Time (CDT) Temp. Dew Point Humidity Pressure Visibility Wind Dir Wind Speed Gust Speed Precip Events Conditions
12:15 AM 75.2 °F 64.4 °F 69% 29.95 in 10.0 mi SE 8.1 mph - N/A   Clear
12:55 AM 75.2 °F 66.2 °F 73% 29.95 in 10.0 mi SE 8.1 mph 17.3 mph N/A   Mostly Cloudy
1:15 AM 75.2 °F 66.2 °F 73% 29.96 in 10.0 mi SE 6.9 mph 15.0 mph N/A   Overcast
1:35 AM 73.4 °F 66.2 °F 78% 29.96 in 10.0 mi SE 13.8 mph 21.9 mph N/A   Overcast
1:55 AM 73.4 °F 68.0 °F 83% 29.96 in 10.0 mi SE 10.4 mph - N/A   Overcast
2:15 AM 71.6 °F 68.0 °F 88% 29.96 in 5.0 mi SE 10.4 mph - N/A   Overcast
2:35 AM 71.6 °F 68.0 °F 88% 29.95 in 8.0 mi SE 5.8 mph - N/A   Overcast
2:55 AM 71.6 °F 68.0 °F 88% 29.95 in 3.0 mi SSE 5.8 mph 12.7 mph N/A   Overcast
3:15 AM 71.6 °F 68.0 °F 88% 29.94 in 9.0 mi SE 5.8 mph - N/A   Overcast
3:35 AM 71.6 °F 68.0 °F 88% 29.93 in 10.0 mi SE 8.1 mph - N/A   Overcast
3:55 AM 71.6 °F 68.0 °F 88% 29.93 in 9.0 mi SE 8.1 mph 18.4 mph N/A   Overcast
4:15 AM 71.6 °F 68.0 °F 88% 29.92 in 10.0 mi SE 9.2 mph 16.1 mph N/A   Overcast
4:35 AM 71.6 °F 68.0 °F 88% 29.92 in 10.0 mi SE 8.1 mph 16.1 mph N/A   Overcast
4:55 AM 71.6 °F 68.0 °F 88% 29.92 in 10.0 mi SE 8.1 mph 17.3 mph N/A   Overcast
5:15 AM 71.6 °F 68.0 °F 88% 29.93 in 2.5 mi SE 9.2 mph 16.1 mph N/A   Overcast
5:35 AM 71.6 °F 69.8 °F 94% 29.93 in 5.0 mi SE 6.9 mph 15.0 mph N/A   Overcast
5:55 AM 69.8 °F 69.8 °F 100% 29.93 in 3.0 mi SE 9.2 mph - N/A   Overcast
6:15 AM 71.6 °F 69.8 °F 94% 29.94 in 10.0 mi SE 8.1 mph 16.1 mph N/A   Overcast
6:35 AM 71.6 °F 69.8 °F 94% 29.95 in 2.0 mi SSE 5.8 mph 12.7 mph N/A   Overcast
7:15 AM 71.6 °F 69.8 °F 94% 29.96 in 8.0 mi Variable 4.6 mph - N/A   Overcast
7:35 AM 71.6 °F 69.8 °F 94% 29.97 in 3.0 mi SSE 5.8 mph 12.7 mph N/A   Overcast
7:55 AM 71.6 °F 69.8 °F 94% 29.97 in 9.0 mi SSE 5.8 mph - 0.01 in   Overcast
8:15 AM 71.6 °F 69.8 °F 94% 29.97 in 10.0 mi Variable 5.8 mph - N/A   Overcast
8:35 AM 71.6 °F 69.8 °F 94% 29.97 in 5.0 mi SSE 8.1 mph - N/A   Overcast
8:55 AM 71.6 °F 69.8 °F 94% 29.98 in 10.0 mi SE 6.9 mph - N/A   Overcast
9:35 AM 73.4 °F 69.8 °F 88% 29.99 in 10.0 mi SE 9.2 mph - N/A   Overcast
9:55 AM 73.4 °F 71.6 °F 94% 30.00 in 10.0 mi SSE 6.9 mph 12.7 mph N/A   Overcast
10:15 AM 73.4 °F 71.6 °F 94% 30.00 in 10.0 mi SE 6.9 mph - N/A   Overcast
10:35 AM 73.4 °F 69.8 °F 88% 30.01 in 9.0 mi SE 8.1 mph - N/A   Overcast
10:55 AM 71.6 °F 69.8 °F 94% 30.01 in 3.0 mi SE 8.1 mph 15.0 mph N/A   Overcast
11:15 AM 73.4 °F 69.8 °F 88% 30.01 in 10.0 mi Variable 6.9 mph - N/A   Overcast
11:35 AM 73.4 °F 69.8 °F 88% 30.01 in 10.0 mi SE 6.9 mph 13.8 mph N/A   Overcast
11:55 AM 75.2 °F 69.8 °F 83% 30.00 in 10.0 mi SSE 10.4 mph - N/A   Overcast
12:15 PM 75.2 °F 69.8 °F 83% 30.00 in 10.0 mi SE 9.2 mph - N/A   Overcast
12:35 PM 75.2 °F 69.8 °F 83% 29.99 in 10.0 mi SSE 8.1 mph - N/A   Overcast
12:55 PM 75.2 °F 69.8 °F 83% 30.00 in 10.0 mi SE 9.2 mph - N/A   Overcast
1:15 PM 73.4 °F 69.8 °F 88% 29.99 in 9.0 mi ESE 9.2 mph 17.3 mph N/A   Overcast
1:35 PM 73.4 °F 69.8 °F 88% 29.98 in 6.0 mi SE 11.5 mph 17.3 mph N/A   Haze
1:55 PM 75.2 °F 69.8 °F 83% 29.98 in 10.0 mi SE 10.4 mph - N/A   Overcast
2:15 PM 77.0 °F 69.8 °F 78% 29.97 in 10.0 mi SSE 10.4 mph 17.3 mph N/A Thunderstorm Overcast
2:35 PM 77.0 °F 69.8 °F 78% 29.97 in 10.0 mi SE 11.5 mph 20.7 mph N/A   Overcast
2:55 PM 75.2 °F 69.8 °F 83% 29.96 in 10.0 mi SE 10.4 mph 18.4 mph N/A   Overcast
3:15 PM 77.0 °F 69.8 °F 78% 29.96 in 10.0 mi SE 10.4 mph 16.1 mph N/A   Overcast
3:35 PM 77.0 °F 69.8 °F 78% 29.95 in 10.0 mi SE 11.5 mph - N/A   Overcast
3:55 PM 77.0 °F 69.8 °F 78% 29.96 in 10.0 mi SE 10.4 mph - N/A   Overcast
4:15 PM 77.0 °F 71.6 °F 83% 29.95 in 10.0 mi SE 9.2 mph - N/A   Overcast
4:35 PM 77.0 °F 71.6 °F 83% 29.96 in 10.0 mi Variable 5.8 mph 16.1 mph N/A   Overcast
4:55 PM 75.2 °F 69.8 °F 83% 29.96 in 10.0 mi SSE 5.8 mph 16.1 mph N/A   Overcast
5:15 PM 77.0 °F 69.8 °F 78% 29.97 in 10.0 mi SSE 8.1 mph 18.4 mph N/A   Overcast
5:35 PM 75.2 °F 69.8 °F 83% 29.97 in 10.0 mi SSE 9.2 mph 15.0 mph N/A   Overcast
5:55 PM 75.2 °F 69.8 °F 83% 29.96 in 10.0 mi SSE 9.2 mph - N/A   Mostly Cloudy
6:15 PM 73.4 °F 69.8 °F 88% 29.97 in 10.0 mi South 8.1 mph 15.0 mph N/A Rain Light Rain
6:35 PM 73.4 °F 69.8 °F 88% 29.97 in 7.0 mi South 5.8 mph 15.0 mph N/A Rain Light Rain
6:55 PM 71.6 °F 69.8 °F 94% 29.97 in 6.0 mi Variable 5.8 mph 12.7 mph 0.03 in Rain Light Rain
7:15 PM 71.6 °F 69.8 °F 94% 29.96 in 9.0 mi Variable 4.6 mph - N/A Rain Light Rain
7:35 PM 71.6 °F 68.0 °F 88% 29.97 in 6.0 mi Variable 3.5 mph - N/A Rain Light Rain
7:55 PM 69.8 °F 68.0 °F 94% 29.99 in 10.0 mi Variable 3.5 mph - 0.03 in   Light Drizzle
8:15 PM 69.8 °F 68.0 °F 94% 29.99 in 10.0 mi Variable 6.9 mph - N/A   Scattered Clouds
8:35 PM 69.8 °F 68.0 °F 94% 30.00 in 10.0 mi Variable 4.6 mph - N/A   Scattered Clouds
8:55 PM 69.8 °F 68.0 °F 94% 29.99 in 10.0 mi Variable 4.6 mph - N/A   Overcast
9:15 PM 69.8 °F 68.0 °F 94% 30.01 in 10.0 mi Variable 3.5 mph - N/A   Overcast
9:35 PM 69.8 °F 68.0 °F 94% 30.00 in 9.0 mi South 9.2 mph - N/A Rain Light Rain
9:55 PM 69.8 °F 68.0 °F 94% 29.99 in 10.0 mi South 8.1 mph 16.1 mph 0.02 in Rain Light Rain
10:15 PM 71.6 °F 69.8 °F 94% 29.99 in 10.0 mi South 8.1 mph 16.1 mph N/A Rain Light Rain
10:35 PM 71.6 °F 69.8 °F 94% 29.99 in 10.0 mi Variable 6.9 mph - N/A   Overcast
10:55 PM 71.6 °F 69.8 °F 94% 29.99 in 9.0 mi South 9.2 mph 15.0 mph 0.02 in   Overcast
11:15 PM 73.4 °F 71.6 °F 94% 29.98 in 7.0 mi SSE 10.4 mph 18.4 mph N/A   Overcast
11:35 PM 73.4 °F 71.6 °F 94% 29.98 in 9.0 mi SSE 9.2 mph 17.3 mph N/A   Overcast
11:55 PM 73.4 °F 71.6 °F 94% 29.98 in 8.0 mi Variable 6.9 mph 15.0 mph 0.03 in   Overcast